User: anonymous   Login
Location: Unspecified
(0.0000°N, 0.0000°E)
Time: 15:02:13
(UTC+00:00)
Language:

Tiros 1 - Orbit

View from above orbital plane
View from above orbital plane
View from above satellite
View from above satellite

Ground track
Ground track

The orbit data is extracted from the following two-line orbital elements,

1 00029U 60002B   21101.92657627 -.00000092  00000-0  17395-4 0  9999
2 00029  48.3808 339.9712 0023660  68.9486 291.3953 14.74418762262585
Epoch (UTC): 11 April 2021 22:14:16
Eccentricity: 0.0023660
inclination: 48.3808°
perigee height: 630 km
apogee height: 663 km
right ascension of ascending node: 339.9712°
argument of perigee: 68.9486°
revolutions per day: 14.74418762
mean anomaly at epoch: 291.3953°
orbit number at epoch: 26258

The dashed part of the orbit path shows where the satellite is in the earth's shadow,  

DLR